Location: Vassar Physics Lab
(41.6843°N, 73.8954°W)
Time: 05:52:43
(UTC-05:00)

Daily predictions for brighter satellites

Satellite Brightness Start Highest point End
(mag) Time Altitude Azimuth Time Altitude Azimuth Time Altitude Azimuth
Cosmos 2237 Rocket 4.0 03:54:17 26° ESE 03:54:17 26° ESE 03:56:57 10° SE
SL-16 R/B 4.2 03:53:47 23° NE 03:54:23 23° NE 03:58:48 10° ESE
Cosmos 2297 Rocket 3.4 04:05:03 38° E 04:05:03 38° E 04:09:40 10° NE
Cosmos 2227 Rocket 3.3 04:18:46 39° NE 04:18:46 39° NE 04:22:18 10° NNE
ISS 0.1 04:33:19 12° ENE 04:33:19 12° ENE 04:33:36 10° ENE
USA 234 4.3 04:32:07 10° E 04:37:59 36° NNE 04:40:03 29° N
SL-08 R/B 4.4 04:43:20 70° NNW 04:43:20 70° NNW 04:48:44 10° N
Cosmos 2082 3.8 04:45:41 65° N 04:45:41 65° N 04:50:35 10° NNE
Cosmos 2333 Rocket 3.6 04:50:14 26° S 04:50:14 26° S 04:52:45 10° S
Cosmos 2219 Rocket 4.3 05:11:11 12° SSW 05:11:11 12° SSW 05:11:32 10° SSW
Cosmos 1743 Rocket 3.4 05:09:30 76° NNW 05:09:50 88° W 05:14:13 10° S
Cosmos 1328 4.5 05:09:48 26° NNE 05:11:49 54° E 05:15:43 10° SSE
Cosmos 2233 Rocket 4.0 05:06:32 10° S 05:12:45 87° E 05:19:06 10° N
Cosmos 2058 4.5 05:12:52 10° N 05:16:40 34° ENE 05:20:27 10° SE
Cosmos 1842 Rocket 3.4 05:15:07 10° S 05:19:27 86° E 05:23:50 10° N
COSMO-SKYMED 1 2.4 05:15:48 10° S 05:20:07 76° WSW 05:21:11 50° NNW
NOAA 6 4.0 05:21:20 10° N 05:26:26 58° WNW 05:31:31 10° SSW
SeaSat 1 4.3 05:23:43 10° N 05:25:11 16° NNW 05:25:11 16° NNW
Cosmos 968 Rocket 3.5 05:22:23 10° SSW 05:27:38 86° ESE 05:32:56 10° NNE
CSL-04 Rocket 4.1 05:24:01 10° NNE 05:29:17 60° ESE 05:34:29 10° S
BREEZE-M DEB (TANK) 4.1 05:31:43 23° N 05:31:43 23° N 05:33:32 10° NE
Cosmos 2151 3.0 05:29:47 10° N 05:34:02 77° E 05:38:15 10° SSE
Cosmos 2237 Rocket 3.3 05:36:10 25° WSW 05:36:10 25° WSW 05:39:55 10° SSW
Cosmos 1500 Rocket 3.5 05:34:37 23° NNW 05:37:19 62° W 05:41:42 10° S
USA 229 DEB 3.9 05:33:34 27° NW 05:37:32 56° WSW 05:44:33 10° SSE
USA 229 3.9 05:33:38 26° NW 05:37:39 56° WSW 05:44:40 10° SSE
SL-16 R/B 2.2 05:35:44 26° NW 05:38:53 58° WSW 05:44:25 10° S
Tsikada Rocket 4.4 05:34:17 10° NNW 05:40:07 39° W 05:45:52 10° SSW
Cosmos 2346 Rocket 4.4 05:35:40 10° NNW 05:41:43 64° W 05:47:42 10° S
Cosmos 2297 Rocket 2.9 05:46:57 27° W 05:48:32 31° NW 05:53:34 10° N
Meteor 1-11 4.2 05:45:24 10° NNW 05:51:15 82° W 05:57:03 10° S
NOSS 3-1 (A) 4.3 05:44:01 11° NNW 05:51:22 69° NE 05:59:41 10° SE
Cosmos 220 Rocket 4.3 05:49:04 10° SW 05:53:19 46° WNW 05:57:34 10° N
Cosmos 1340 Rocket 2.7 05:49:53 10° N 05:53:49 90° NE 05:57:47 10° S
Aureole 2 Rocket 4.0 05:57:16 25° W 05:57:30 25° W 06:00:56 10° SSW
Cosmos 1777 Rocket 4.0 05:52:31 10° SSW 05:57:44 84° ESE 06:02:58 10° NNE
ATLAS 2AS CENTAUR R/B 4.4 05:52:35 10° NNW 05:59:44 32° NE 06:06:32 10° E
Cosmos 2227 Rocket 3.4 06:00:39 20° WNW 06:01:16 20° NW 06:05:24 10° N
Cosmos 1464 Rocket 4.0 05:55:19 10° S 06:01:40 87° W 06:08:01 10° N
Meteor 1-16 Rocket 4.1 05:56:43 10° SSW 06:02:04 57° WNW 06:07:20 10° N
Cosmos 1271 Rocket 2.7 05:59:41 10° SSW 06:03:29 58° WNW 06:07:14 10° N
IDEFIX/ARIANE 42P 3.1 05:59:09 10° NNE 06:04:24 64° E 06:09:37 10° S
Cosmos 1184 Rocket 4.2 06:02:48 10° N 06:05:58 40° ENE 06:09:06 10° SSE
SL-14 R/B 3.7 06:02:53 10° NNW 06:06:44 41° W 06:10:33 10° SSW
ISS -3.2 06:06:00 27° WNW 06:07:33 58° SW 06:10:45 10° SE
OAO 2 Rocket 4.3 06:04:02 14° WSW 06:07:41 36° S 06:12:11 10° ESE
Cosmos 304 Rocket 4.5 06:05:04 18° NW 06:07:54 32° WSW 06:12:07 10° SSW
Meteor 1-28 Rocket 4.0 06:05:06 10° SSW 06:08:26 29° W 06:10:38 17° NW
Meteor 1-4 Rocket 3.7 06:09:48 10° SW 06:12:49 23° WNW 06:15:52 10° NNW
YAOGAN 1 3.2 06:10:33 10° NNE 06:14:50 60° E 06:19:07 10° S
CZ-4 R/B 1.3 06:15:40 10° N 06:19:43 79° WNW 06:23:48 10° SSW
Meteor 2-1 Rocket 4.2 06:14:40 10° SSW 06:20:12 63° WNW 06:25:54 10° N
USA 234 3.3 06:13:58 10° SE 06:20:33 87° SW 06:27:09 10° NW
Meteor 2-12 Rocket 4.4 06:14:32 10° SSW 06:20:36 64° W 06:26:44 10° N
Cosmos 1943 3.9 06:17:10 10° NNW 06:22:48 56° ENE 06:28:22 10° SE
ERBS 2.4 06:23:54 14° NW 06:26:44 65° SW 06:30:07 10° SE
Cosmos 1626 2.0 06:23:35 10° N 06:27:20 77° W 06:31:03 10° S
Aureole 1 4.5 06:24:24 10° SW 06:27:22 48° WNW 06:30:47 10° N
Cosmos 1666 Rocket 3.6 06:23:21 10° N 06:27:49 89° WNW 06:32:18 10° S
Cosmos 923 Rocket 4.0 06:24:03 10° NNW 06:29:17 76° WSW 06:34:31 10° SSE
Meteor 1-29 3.6 06:27:44 10° SSE 06:31:10 61° ENE 06:34:39 10° N
NOSS 3-1 (C) 4.2 06:25:34 10° NW 06:33:04 60° WSW 06:41:14 10° SSE
Ariane Rocket 3.8 06:28:57 10° N 06:33:18 29° WNW 06:37:40 10° SW
PSLV R/B 3.9 06:30:48 10° WSW 06:34:06 53° SSE 06:37:23 10° E
Coronas F rocket 1.1 06:33:43 10° N 06:36:06 77° E 06:38:30 10° S
Cosmos 2221 3.1 06:32:32 10° SW 06:36:31 35° WNW 06:40:31 10° N
Cosmos 1680 Rocket 3.5 06:33:18 10° NNW 06:38:39 82° WSW 06:43:57 10° SSE
SL-8 R/B 3.9 06:34:13 10° WNW 06:38:58 71° NNE 06:43:45 10° ESE
TELKOM 3 3.3 06:37:05 10° WSW 06:39:30 42° NNW 06:41:33 10° NE
MSX 3.9 06:36:19 10° NNE 06:42:06 87° ESE 06:47:53 10° SSW
Cosmos 1603 4.0 06:37:17 10° NW 06:42:40 47° WSW 06:48:02 10° S
CORIOLIS 4.2 06:37:25 10° NNE 06:42:52 82° WNW 06:48:17 10° SSW
CZ-4 R/B 4.4 06:38:54 10° N 06:43:02 82° WNW 06:47:09 10° SSW
ATLAS CENTAUR R/B 4.4 06:43:39 10° NNW 06:47:43 23° NNE 06:56:19 10° E
Cosmos 389 Rocket 2.5 06:45:33 10° SSW 06:49:11 71° W 06:52:52 10° N
Cosmos 1908 3.2 06:46:15 10° SSW 06:50:02 65° W 06:53:52 10° N
Cosmos 2263 Rocket 2.7 06:45:46 10° SSW 06:51:22 69° ESE 06:57:03 10° NNE
